Weather History for KHDE - September, 2013

Change the Weather History Date:

Sunday, September 22, 2013

  Actual Average Record
Temperature  
Mean Temperature 69 °F -  
Max Temperature 82 °F 74 °F 90 °F (1988)
Min Temperature 56 °F 47 °F 32 °F (1983)
Cooling Degree Days 4    
Growing Degree Days 19 (Base 50)    
Moisture  
Dew Point 47 °F    
Average Humidity 46    
Maximum Humidity 69    
Minimum Humidity 29    
Precipitation  
Precipitation 0.00 in - - ()
Sea Level Pressure  
Sea Level Pressure 29.77 in    
Wind  
Wind Speed 16 mph (South)    
Max Wind Speed 29 mph    
Max Gust Speed 36 mph    
Visibility 10 miles    
Events      
Averages and records for this station are not official NWS values.
T = Trace of Precipitation, MM = Missing Value Source: NWS Daily Summary

Daily Weather History Graph

Daily Weather History Graph

Search for Another Location

Airport or City:

Trip Planner

Search our weather history database for the weather conditions in past years. The results will help you decide how hot, cold, wet, or windy it might be!

Date:

Astronomy

Sep. 22, 2013 Rise Set
Actual Time 7:25 AM CDT 7:34 PM CDT
Civil Twilight 6:57 AM CDT 8:01 PM CDT
Nautical Twilight 6:26 AM CDT 8:32 PM CDT
Astronomical Twilight 5:53 AM CDT 9:05 PM CDT
Moon 9:24 PM CDT (9/22) 10:47 AM CDT (9/22)
Length of Visible Light 13h 03m
Length of Day
12h 08m
Waning Gibbous, 88% of the Moon is Illuminated
Sep 22
Waning Gibbous
Sep 26
Last Quarter
Oct 4
New
Oct 11
First Quarter
Oct 18
Full

Hourly Weather History & Observations

Time (CDT) Temp. Dew Point Humidity Pressure Visibility Wind Dir Wind Speed Gust Speed Precip Events Conditions
12:15 AM 65.7 °F 44.1 °F 46% 29.83 in 10.0 mi South 12.7 mph - N/A   Clear
12:35 AM 64.2 °F 44.6 °F 49% 29.84 in 10.0 mi South 10.4 mph - N/A   Clear
12:55 AM 64.0 °F 44.4 °F 49% 29.83 in 10.0 mi South 9.2 mph 16.1 mph N/A   Clear
1:15 AM 63.7 °F 44.6 °F 50% 29.83 in 10.0 mi South 13.8 mph 17.3 mph N/A   Clear
1:35 AM 63.0 °F 44.6 °F 51% 29.83 in 10.0 mi South 10.4 mph - N/A   Clear
1:55 AM 62.8 °F 44.6 °F 51% 29.83 in 10.0 mi South 11.5 mph - N/A   Clear
2:15 AM 62.6 °F 44.6 °F 52% 29.83 in 10.0 mi South 12.7 mph - N/A   Clear
2:35 AM 62.6 °F 44.4 °F 51% 29.82 in 10.0 mi South 13.8 mph - N/A   Clear
2:55 AM 62.6 °F 43.9 °F 50% 29.82 in 10.0 mi South 13.8 mph 18.4 mph N/A   Clear
3:15 AM 61.9 °F 43.9 °F 52% 29.82 in 10.0 mi South 11.5 mph 18.4 mph N/A   Clear
3:35 AM 61.7 °F 43.7 °F 52% 29.81 in 10.0 mi South 13.8 mph - N/A   Clear
3:55 AM 61.7 °F 43.7 °F 52% 29.81 in 10.0 mi South 13.8 mph - N/A   Clear
4:15 AM 61.2 °F 43.9 °F 53% 29.81 in 10.0 mi South 13.8 mph 18.4 mph N/A   Clear
4:35 AM 60.8 °F 44.1 °F 54% 29.81 in 10.0 mi South 13.8 mph - N/A   Clear
4:55 AM 60.8 °F 44.6 °F 55% 29.81 in 10.0 mi South 12.7 mph - N/A   Clear
5:15 AM 60.8 °F 44.8 °F 56% 29.82 in 10.0 mi South 11.5 mph - N/A   Clear
5:35 AM 60.6 °F 44.8 °F 56% 29.81 in 10.0 mi South 12.7 mph 18.4 mph N/A   Clear
5:55 AM 60.3 °F 45.0 °F 57% 29.81 in 10.0 mi South 12.7 mph - N/A   Clear
6:15 AM 60.1 °F 44.8 °F 57% 29.81 in 10.0 mi South 15.0 mph 18.4 mph N/A   Clear
6:35 AM 59.9 °F 45.1 °F 58% 29.81 in 10.0 mi South 10.4 mph 16.1 mph N/A   Clear
6:55 AM 58.6 °F 45.7 °F 62% 29.82 in 10.0 mi South 10.4 mph - N/A   Clear
7:15 AM 58.3 °F 46.0 °F 64% 29.81 in 10.0 mi South 11.5 mph - N/A   Clear
7:35 AM 57.7 °F 46.4 °F 66% 29.82 in 10.0 mi South 12.7 mph - N/A   Clear
7:55 AM 56.8 °F 46.8 °F 69% 29.82 in 10.0 mi SSE 9.2 mph - N/A   Clear
8:15 AM 58.1 °F 46.9 °F 66% 29.83 in 10.0 mi South 13.8 mph - N/A   Clear
8:35 AM 59.2 °F 47.3 °F 65% 29.83 in 10.0 mi South 15.0 mph - N/A   Clear
8:55 AM 60.8 °F 47.3 °F 61% 29.83 in 10.0 mi South 15.0 mph 19.6 mph N/A   Clear
9:15 AM 62.4 °F 47.5 °F 58% 29.83 in 10.0 mi South 16.1 mph 21.9 mph N/A   Clear
9:35 AM 64.0 °F 47.1 °F 54% 29.82 in 10.0 mi South 17.3 mph 26.5 mph N/A   Clear
9:55 AM 66.0 °F 47.1 °F 50% 29.82 in 10.0 mi South 17.3 mph 27.6 mph N/A   Clear
10:15 AM 67.6 °F 47.3 °F 48% 29.82 in 10.0 mi South 20.7 mph 28.8 mph N/A   Clear
10:35 AM 69.4 °F 47.7 °F 46% 29.83 in 10.0 mi South 20.7 mph 26.5 mph N/A   Clear
10:55 AM 71.1 °F 48.0 °F 44% 29.82 in 10.0 mi South 21.9 mph 28.8 mph N/A   Clear
11:15 AM 71.8 °F 48.2 °F 43% 29.82 in 10.0 mi South 19.6 mph 25.3 mph N/A   Clear
11:35 AM 72.9 °F 48.2 °F 42% 29.81 in 10.0 mi SSE 20.7 mph 26.5 mph N/A   Clear
11:55 AM 74.8 °F 48.6 °F 39% 29.80 in 10.0 mi South 19.6 mph 26.5 mph N/A   Clear
12:15 PM 75.9 °F 48.4 °F 38% 29.79 in 10.0 mi South 24.2 mph 29.9 mph N/A   Clear
12:35 PM 77.2 °F 48.0 °F 36% 29.79 in 10.0 mi South 23.0 mph 27.6 mph N/A   Clear
12:55 PM 78.4 °F 48.4 °F 35% 29.78 in 10.0 mi South 23.0 mph 32.2 mph N/A   Clear
1:15 PM 79.5 °F 48.4 °F 33% 29.78 in 10.0 mi SSE 23.0 mph 28.8 mph N/A   Clear
1:35 PM 80.1 °F 48.2 °F 33% 29.77 in 10.0 mi SSE 21.9 mph 29.9 mph N/A   Clear
1:55 PM 80.8 °F 48.0 °F 32% 29.76 in 10.0 mi SSE 24.2 mph 33.4 mph N/A   Clear
2:15 PM 81.3 °F 47.8 °F 31% 29.75 in 10.0 mi SSE 24.2 mph 32.2 mph N/A   Clear
2:35 PM 81.5 °F 47.8 °F 31% 29.75 in 10.0 mi South 25.3 mph 35.7 mph N/A   Clear
2:55 PM 81.5 °F 47.7 °F 31% 29.74 in 10.0 mi SSE 28.8 mph 35.7 mph N/A   Clear
3:15 PM 81.9 °F 47.5 °F 30% 29.73 in 10.0 mi SSE 27.6 mph 35.7 mph N/A   Clear
3:35 PM 82.4 °F 47.5 °F 29% 29.73 in 10.0 mi SSE 25.3 mph 32.2 mph N/A   Clear
3:55 PM 82.4 °F 47.3 °F 29% 29.72 in 10.0 mi SSE 25.3 mph 32.2 mph N/A   Clear
4:15 PM 82.4 °F 47.5 °F 29% 29.72 in 10.0 mi SSE 21.9 mph 34.5 mph N/A   Clear
4:35 PM 81.9 °F 47.1 °F 30% 29.71 in 10.0 mi SSE 25.3 mph 35.7 mph N/A   Clear
4:55 PM 81.9 °F 47.3 °F 30% 29.70 in 10.0 mi South 21.9 mph 33.4 mph N/A   Clear
5:15 PM 81.7 °F 46.9 °F 30% 29.70 in 10.0 mi South 21.9 mph 35.7 mph N/A   Clear
5:35 PM 81.3 °F 46.2 °F 29% 29.70 in 10.0 mi SSE 23.0 mph 35.7 mph N/A   Clear
5:55 PM 80.8 °F 46.8 °F 30% 29.70 in 10.0 mi SSE 23.0 mph 33.4 mph N/A   Clear
6:15 PM 79.7 °F 47.1 °F 32% 29.70 in 10.0 mi SSE 21.9 mph 35.7 mph N/A   Clear
6:35 PM 78.8 °F 47.3 °F 33% 29.70 in 10.0 mi SSE 24.2 mph 32.2 mph N/A   Clear
6:55 PM 77.7 °F 47.3 °F 34% 29.70 in 10.0 mi SSE 21.9 mph 32.2 mph N/A   Clear
7:15 PM 75.6 °F 48.2 °F 38% 29.70 in 10.0 mi SSE 19.6 mph 28.8 mph N/A   Clear
7:35 PM 73.6 °F 48.6 °F 41% 29.70 in 10.0 mi SSE 19.6 mph 26.5 mph N/A   Clear
7:55 PM 72.5 °F 48.6 °F 43% 29.70 in 10.0 mi SSE 19.6 mph 26.5 mph N/A   Clear
8:15 PM 71.6 °F 48.7 °F 44% 29.71 in 10.0 mi SSE 19.6 mph 25.3 mph N/A   Clear
8:35 PM 70.5 °F 49.1 °F 47% 29.71 in 10.0 mi SSE 17.3 mph 25.3 mph N/A   Clear
8:55 PM 69.6 °F 49.1 °F 48% 29.71 in 10.0 mi SSE 17.3 mph 25.3 mph N/A   Clear
9:15 PM 69.3 °F 49.3 °F 49% 29.72 in 10.0 mi SSE 18.4 mph 26.5 mph N/A   Clear
9:35 PM 68.0 °F 49.5 °F 51% 29.72 in 10.0 mi SSE 16.1 mph 20.7 mph N/A   Clear
9:55 PM 67.3 °F 49.1 °F 52% 29.72 in 10.0 mi SSE 17.3 mph 21.9 mph N/A   Clear
10:15 PM 66.9 °F 48.4 °F 51% 29.72 in 10.0 mi SSE 18.4 mph 25.3 mph N/A   Clear
10:35 PM 66.4 °F 48.2 °F 52% 29.73 in 10.0 mi SSE 17.3 mph 23.0 mph N/A   Clear
10:55 PM 65.5 °F 47.7 °F 53% 29.73 in 10.0 mi SSE 15.0 mph 20.7 mph N/A   Clear
11:15 PM 65.5 °F 47.3 °F 52% 29.73 in 10.0 mi SSE 17.3 mph 20.7 mph N/A   Clear
11:35 PM 65.5 °F 46.9 °F 51% 29.73 in 10.0 mi SSE 20.7 mph 29.9 mph N/A   Clear
11:55 PM 64.8 °F 46.8 °F 52% 29.73 in 10.0 mi SSE 18.4 mph 24.2 mph N/A   Clear